SWR457 GMMN-LEMD

Flight info

Callsign SWR457
Flight time 1h 13m
Altitude 38000
Route TOLSI UG5 KORIS DCT SVL DCT HIJ DCT PARKA DCT SOTUK
Aircraft B77W/H-SDE1E2E3FGHIJ2J3J4J5M1RWXY/LB1D1

Departure

Time 2026-05-07 11:06
Airport Mohammed V International Airport (GMMN)

Arrival

Time 2026-05-07 12:20
Airport Adolfo Suárez Madrid–Barajas Airport (LEMD)
Time Latitude Longitude Altitude Speed Heading
2026-05-07 10:48 33.37618 -7.58340 657 ft 0 kts 122°
2026-05-07 10:56 33.37620 -7.58343 658 ft 3 kts 122°
2026-05-07 10:56 33.37634 -7.58370 658 ft 4 kts 122°
2026-05-07 10:56 33.37649 -7.58398 655 ft 4 kts 123°
2026-05-07 10:56 33.37663 -7.58423 654 ft 4 kts 127°
2026-05-07 10:57 33.37682 -7.58445 655 ft 4 kts 151°
2026-05-07 10:57 33.37706 -7.58457 656 ft 4 kts 169°
2026-05-07 10:57 33.37729 -7.58462 656 ft 1 kts 164°
2026-05-07 10:57 33.37734 -7.58463 655 ft 0 kts 164°
2026-05-07 11:01 33.37732 -7.58463 658 ft 2 kts 164°
2026-05-07 11:01 33.37711 -7.58456 658 ft 8 kts 164°
2026-05-07 11:01 33.37587 -7.58429 658 ft 19 kts 167°
2026-05-07 11:02 33.37489 -7.58398 658 ft 24 kts 164°
2026-05-07 11:02 33.37227 -7.58311 658 ft 34 kts 165°
2026-05-07 11:02 33.37063 -7.58258 658 ft 38 kts 165°
2026-05-07 11:02 33.36804 -7.58151 658 ft 40 kts 164°
2026-05-07 11:03 33.36600 -7.58086 658 ft 26 kts 167°
2026-05-07 11:03 33.36430 -7.58133 658 ft 26 kts 189°
2026-05-07 11:03 33.36257 -7.58082 658 ft 26 kts 160°
2026-05-07 11:03 33.36086 -7.58025 657 ft 26 kts 165°
2026-05-07 11:04 33.35912 -7.57968 658 ft 26 kts 165°
2026-05-07 11:04 33.35741 -7.57912 657 ft 26 kts 165°
2026-05-07 11:04 33.35619 -7.57932 657 ft 18 kts 238°
2026-05-07 11:04 33.35527 -7.58005 657 ft 18 kts 171°
2026-05-07 11:05 33.35406 -7.57965 657 ft 18 kts 163°
2026-05-07 11:05 33.35287 -7.57961 657 ft 18 kts 216°
2026-05-07 11:05 33.35230 -7.58093 658 ft 18 kts 252°
2026-05-07 11:05 33.35218 -7.58239 659 ft 18 kts 294°
2026-05-07 11:06 33.35338 -7.58303 657 ft 26 kts 346°
2026-05-07 11:06 33.35861 -7.58483 650 ft 141 kts 343°
2026-05-07 11:06 33.37097 -7.58915 1280 ft 205 kts 343°
2026-05-07 11:06 33.38439 -7.59368 3128 ft 198 kts 345°
2026-05-07 11:07 33.39860 -7.59693 3649 ft 218 kts 354°
2026-05-07 11:07 33.41431 -7.59696 4143 ft 240 kts
2026-05-07 11:07 33.43182 -7.59337 4595 ft 267 kts 14°
2026-05-07 11:07 33.44931 -7.58474 5367 ft 278 kts 32°
2026-05-07 11:08 33.46420 -7.57005 6364 ft 280 kts 47°
2026-05-07 11:08 33.47632 -7.55186 7284 ft 285 kts 53°
2026-05-07 11:08 33.48848 -7.53269 8195 ft 289 kts 52°
2026-05-07 11:08 33.50088 -7.51379 9202 ft 291 kts 50°
2026-05-07 11:09 33.51368 -7.49481 10028 ft 298 kts 49°
2026-05-07 11:09 33.52719 -7.47510 10607 ft 316 kts 49°
2026-05-07 11:09 33.54193 -7.45372 10849 ft 347 kts 49°
2026-05-07 11:09 33.55933 -7.43279 11105 ft 365 kts 33°
2026-05-07 11:10 33.58194 -7.41790 11879 ft 372 kts 19°
2026-05-07 11:10 33.60701 -7.41027 12830 ft 377 kts
2026-05-07 11:10 33.63291 -7.40561 13911 ft 381 kts
2026-05-07 11:10 33.65946 -7.40116 14864 ft 387 kts
2026-05-07 11:11 33.68646 -7.39658 15839 ft 394 kts
2026-05-07 11:11 33.71347 -7.39181 16794 ft 400 kts
2026-05-07 11:11 33.74146 -7.38668 17753 ft 408 kts
2026-05-07 11:11 33.76983 -7.38135 18637 ft 414 kts
2026-05-07 11:12 33.79827 -7.37592 19537 ft 418 kts
2026-05-07 11:12 33.82715 -7.37035 20480 ft 421 kts
2026-05-07 11:12 33.85593 -7.36479 21382 ft 424 kts
2026-05-07 11:12 33.88537 -7.35910 22256 ft 429 kts
2026-05-07 11:13 33.91514 -7.35335 23111 ft 434 kts
2026-05-07 11:13 33.94494 -7.34760 23857 ft 438 kts
2026-05-07 11:13 33.97498 -7.34179 24557 ft 443 kts
2026-05-07 11:13 34.00572 -7.33584 25293 ft 446 kts
2026-05-07 11:14 34.03639 -7.32989 25978 ft 450 kts
2026-05-07 11:14 34.06772 -7.32382 26646 ft 454 kts
2026-05-07 11:14 34.09894 -7.31777 27279 ft 459 kts
2026-05-07 11:14 34.13036 -7.30868 27879 ft 473 kts 14°
2026-05-07 11:15 34.16022 -7.29182 28482 ft 483 kts 21°
2026-05-07 11:15 34.18992 -7.27248 29058 ft 488 kts 22°
2026-05-07 11:15 34.22003 -7.25255 29615 ft 492 kts 22°
2026-05-07 11:15 34.25036 -7.23278 30133 ft 496 kts 22°
2026-05-07 11:16 34.28066 -7.21350 30658 ft 496 kts 21°
2026-05-07 11:16 34.31135 -7.19430 31364 ft 491 kts 20°
2026-05-07 11:16 34.34178 -7.17545 32027 ft 488 kts 20°
2026-05-07 11:16 34.37188 -7.15690 32620 ft 486 kts 20°
2026-05-07 11:17 34.40209 -7.13830 33205 ft 485 kts 20°
2026-05-07 11:17 34.43193 -7.11989 33768 ft 483 kts 20°
2026-05-07 11:17 34.46196 -7.10132 34301 ft 481 kts 20°
2026-05-07 11:17 34.49162 -7.08294 34734 ft 481 kts 20°
2026-05-07 11:18 34.52120 -7.06460 35122 ft 480 kts 20°
2026-05-07 11:18 34.55122 -7.04596 35576 ft 480 kts 20°
2026-05-07 11:18 34.58097 -7.02747 36004 ft 479 kts 20°
2026-05-07 11:18 34.61036 -7.00921 36420 ft 478 kts 20°
2026-05-07 11:19 34.64014 -6.99088 36811 ft 477 kts 20°
2026-05-07 11:19 34.66954 -6.97290 37201 ft 477 kts 20°
2026-05-07 11:19 34.69943 -6.95465 37580 ft 476 kts 20°
2026-05-07 11:19 34.72876 -6.93673 37928 ft 476 kts 20°
2026-05-07 11:20 34.78839 -6.90023 37983 ft 481 kts 21°
2026-05-07 11:20 34.84771 -6.86370 37984 ft 474 kts 20°
2026-05-07 11:21 34.90652 -6.82745 37988 ft 472 kts 20°
2026-05-07 11:21 34.96505 -6.79136 37981 ft 473 kts 20°
2026-05-07 11:22 35.02402 -6.75494 37979 ft 473 kts 20°
2026-05-07 11:22 35.08243 -6.71879 38006 ft 474 kts 20°
2026-05-07 11:23 35.14134 -6.68227 37984 ft 475 kts 20°
2026-05-07 11:23 35.20032 -6.64563 37980 ft 476 kts 20°
2026-05-07 11:24 35.25932 -6.60893 37981 ft 476 kts 20°
2026-05-07 11:24 35.31832 -6.57216 37976 ft 476 kts 20°
2026-05-07 11:25 35.37731 -6.53534 37967 ft 476 kts 20°
2026-05-07 11:25 35.43642 -6.49839 37963 ft 476 kts 20°
2026-05-07 11:26 35.49516 -6.46075 37977 ft 477 kts 21°
2026-05-07 11:26 35.55392 -6.42211 37967 ft 478 kts 21°
2026-05-07 11:27 35.61242 -6.38369 37973 ft 479 kts 21°
2026-05-07 11:27 35.67124 -6.34515 37968 ft 479 kts 21°
2026-05-07 11:28 35.73009 -6.30654 37963 ft 479 kts 21°
2026-05-07 11:28 35.78878 -6.26803 37963 ft 479 kts 21°
2026-05-07 11:29 35.84909 -6.23481 37965 ft 469 kts 11°
2026-05-07 11:29 35.91161 -6.21482 37966 ft 463 kts
2026-05-07 11:30 35.97428 -6.19710 37963 ft 463 kts
2026-05-07 11:30 36.03749 -6.17893 37964 ft 464 kts
2026-05-07 11:31 36.10016 -6.16057 37992 ft 464 kts
2026-05-07 11:31 36.16296 -6.14203 37963 ft 465 kts
2026-05-07 11:32 36.25713 -6.11415 37954 ft 465 kts
2026-05-07 11:33 36.32005 -6.09550 37951 ft 465 kts
2026-05-07 11:33 36.38295 -6.07684 37946 ft 467 kts
2026-05-07 11:34 36.44628 -6.05802 37954 ft 468 kts
2026-05-07 11:34 36.50994 -6.03907 37947 ft 469 kts
2026-05-07 11:35 36.57319 -6.02019 37949 ft 470 kts
2026-05-07 11:35 36.63684 -6.00117 37950 ft 471 kts
2026-05-07 11:36 36.70092 -5.98199 37941 ft 472 kts
2026-05-07 11:36 36.76451 -5.96292 37939 ft 471 kts
2026-05-07 11:37 36.82618 -5.94439 37930 ft 471 kts
2026-05-07 11:37 36.88939 -5.92538 37936 ft 471 kts
2026-05-07 11:38 36.95293 -5.90623 37937 ft 471 kts
2026-05-07 11:38 37.01427 -5.88771 37926 ft 471 kts
2026-05-07 11:39 37.07625 -5.86898 37920 ft 471 kts
2026-05-07 11:39 37.13846 -5.85014 37925 ft 472 kts
2026-05-07 11:40 37.19898 -5.83178 37920 ft 472 kts
2026-05-07 11:40 37.26286 -5.81236 37920 ft 473 kts
2026-05-07 11:41 37.32691 -5.79285 37909 ft 473 kts
2026-05-07 11:41 37.39001 -5.77362 37912 ft 474 kts
2026-05-07 11:42 37.45320 -5.74815 37918 ft 485 kts 17°
2026-05-07 11:42 37.51427 -5.71129 37919 ft 488 kts 19°
2026-05-07 11:43 37.57196 -5.67549 37907 ft 489 kts 18°
2026-05-07 11:43 37.63309 -5.63796 37916 ft 490 kts 19°
2026-05-07 11:44 37.69190 -5.60219 37912 ft 490 kts 19°
2026-05-07 11:44 37.75290 -5.56512 37906 ft 489 kts 19°
2026-05-07 11:45 37.81363 -5.52813 37908 ft 488 kts 19°
2026-05-07 11:45 37.87502 -5.49067 37910 ft 488 kts 19°
2026-05-07 11:46 37.93578 -5.45348 37905 ft 486 kts 19°
2026-05-07 11:46 37.99679 -5.41608 37911 ft 485 kts 19°
2026-05-07 11:47 38.05706 -5.37908 37902 ft 484 kts 19°
2026-05-07 11:47 38.11759 -5.34187 37909 ft 483 kts 19°
2026-05-07 11:48 38.17807 -5.30460 37903 ft 483 kts 20°
2026-05-07 11:48 38.22844 -5.27349 37911 ft 483 kts 20°
2026-05-07 11:49 38.28879 -5.23616 37897 ft 483 kts 20°
2026-05-07 11:49 38.34923 -5.19872 37897 ft 483 kts 20°
2026-05-07 11:50 38.40954 -5.16129 37897 ft 483 kts 20°
2026-05-07 11:50 38.47040 -5.12405 37875 ft 480 kts 16°
2026-05-07 11:51 38.53412 -5.10498 37912 ft 466 kts 359°
2026-05-07 11:51 38.59795 -5.10751 37901 ft 460 kts 350°
2026-05-07 11:52 38.66209 -5.11514 37149 ft 471 kts 350°
2026-05-07 11:52 38.69484 -5.11881 36610 ft 467 kts 350°
2026-05-07 11:52 38.72683 -5.12216 36149 ft 460 kts 350°
2026-05-07 11:52 38.75846 -5.12537 35696 ft 454 kts 350°
2026-05-07 11:53 38.78994 -5.12854 35248 ft 448 kts 350°
2026-05-07 11:53 38.82073 -5.13165 34776 ft 444 kts 350°
2026-05-07 11:53 38.85139 -5.13478 34306 ft 439 kts 349°
2026-05-07 11:53 38.88180 -5.13788 33839 ft 435 kts 349°
2026-05-07 11:54 38.91162 -5.14093 33324 ft 431 kts 349°
2026-05-07 11:54 38.94143 -5.14375 32836 ft 425 kts 353°
2026-05-07 11:54 38.97078 -5.13926 32385 ft 434 kts 10°
2026-05-07 11:54 38.99867 -5.12312 31939 ft 443 kts 25°
2026-05-07 11:55 39.02312 -5.09912 31523 ft 449 kts 38°
2026-05-07 11:55 39.04252 -5.06727 31063 ft 453 kts 53°
2026-05-07 11:55 39.05876 -5.03233 30609 ft 450 kts 54°
2026-05-07 11:55 39.07430 -4.99818 30164 ft 447 kts 54°
2026-05-07 11:56 39.09018 -4.96369 29667 ft 443 kts 53°
2026-05-07 11:56 39.10594 -4.93014 29184 ft 440 kts 55°
2026-05-07 11:56 39.12183 -4.89675 28693 ft 436 kts 55°
2026-05-07 11:56 39.13785 -4.86334 28251 ft 431 kts 56°
2026-05-07 11:57 39.15341 -4.83090 27792 ft 427 kts 56°
2026-05-07 11:57 39.16901 -4.79835 27345 ft 424 kts 56°
2026-05-07 11:57 39.18449 -4.76596 26911 ft 420 kts 56°
2026-05-07 11:57 39.20051 -4.73513 26444 ft 414 kts 49°
2026-05-07 11:58 39.22014 -4.70807 26036 ft 408 kts 43°
2026-05-07 11:58 39.24035 -4.68293 25612 ft 405 kts 42°
2026-05-07 11:58 39.26060 -4.65804 25200 ft 402 kts 43°
2026-05-07 11:58 39.28084 -4.63286 24774 ft 400 kts 44°
2026-05-07 11:59 39.30048 -4.60801 24359 ft 398 kts 44°
2026-05-07 11:59 39.32012 -4.58284 23942 ft 396 kts 45°
2026-05-07 11:59 39.33964 -4.55763 23514 ft 394 kts 46°
2026-05-07 11:59 39.35882 -4.53273 23040 ft 392 kts 46°
2026-05-07 12:00 39.37807 -4.50768 22584 ft 390 kts 46°
2026-05-07 12:00 39.39696 -4.48307 22168 ft 387 kts 46°
2026-05-07 12:00 39.41586 -4.45846 21743 ft 384 kts 46°
2026-05-07 12:00 39.43473 -4.43388 21322 ft 381 kts 46°
2026-05-07 12:01 39.45343 -4.40950 20911 ft 379 kts 46°
2026-05-07 12:01 39.47182 -4.38548 20504 ft 377 kts 46°
2026-05-07 12:01 39.49035 -4.36129 20088 ft 376 kts 46°
2026-05-07 12:01 39.50853 -4.33753 19697 ft 375 kts 46°
2026-05-07 12:02 39.52699 -4.31338 19265 ft 374 kts 46°
2026-05-07 12:02 39.54510 -4.28967 18855 ft 373 kts 46°
2026-05-07 12:02 39.56349 -4.26557 18446 ft 372 kts 46°
2026-05-07 12:02 39.58154 -4.24191 18012 ft 372 kts 46°
2026-05-07 12:03 39.59978 -4.21798 17536 ft 371 kts 46°
2026-05-07 12:03 39.61778 -4.19432 17087 ft 370 kts 46°
2026-05-07 12:03 39.63590 -4.17051 16679 ft 368 kts 46°
2026-05-07 12:03 39.65395 -4.14677 16253 ft 367 kts 46°
2026-05-07 12:04 39.67165 -4.12347 15851 ft 365 kts 46°
2026-05-07 12:04 39.68955 -4.09989 15439 ft 364 kts 46°
2026-05-07 12:04 39.70722 -4.07660 15029 ft 363 kts 46°
2026-05-07 12:04 39.72505 -4.05308 14645 ft 361 kts 46°
2026-05-07 12:05 39.74249 -4.03005 14506 ft 352 kts 46°
2026-05-07 12:05 39.75934 -4.00778 14347 ft 344 kts 46°
2026-05-07 12:05 39.77601 -3.98575 14187 ft 336 kts 46°
2026-05-07 12:05 39.79205 -3.96452 14058 ft 328 kts 46°
2026-05-07 12:06 39.80802 -3.94338 13913 ft 321 kts 46°
2026-05-07 12:06 39.82337 -3.92305 13779 ft 313 kts 46°
2026-05-07 12:06 39.83858 -3.90288 13608 ft 305 kts 46°
2026-05-07 12:06 39.85305 -3.88367 13501 ft 295 kts 46°
2026-05-07 12:07 39.86738 -3.86464 13091 ft 297 kts 46°
2026-05-07 12:07 39.88186 -3.84539 12675 ft 298 kts 46°
2026-05-07 12:07 39.89630 -3.82620 12507 ft 291 kts 46°
2026-05-07 12:07 39.91023 -3.80768 12234 ft 288 kts 46°
2026-05-07 12:08 39.92434 -3.78889 11882 ft 283 kts 46°
2026-05-07 12:08 39.93766 -3.77117 11607 ft 267 kts 46°
2026-05-07 12:08 39.95070 -3.75378 11483 ft 270 kts 47°
2026-05-07 12:08 39.96387 -3.73621 11262 ft 277 kts 47°
2026-05-07 12:09 39.97742 -3.71811 11013 ft 276 kts 47°
2026-05-07 12:09 39.99068 -3.70040 10780 ft 273 kts 47°
2026-05-07 12:09 40.00395 -3.68268 10544 ft 269 kts 47°
2026-05-07 12:09 40.01688 -3.66539 10308 ft 266 kts 47°
2026-05-07 12:10 40.02980 -3.64811 10087 ft 263 kts 47°
2026-05-07 12:10 40.04186 -3.63197 9881 ft 261 kts 47°
2026-05-07 12:10 40.05492 -3.61448 9627 ft 260 kts 47°
2026-05-07 12:10 40.06757 -3.59753 9392 ft 258 kts 47°
2026-05-07 12:11 40.07998 -3.58090 9187 ft 257 kts 47°
2026-05-07 12:11 40.09253 -3.56406 8953 ft 258 kts 47°
2026-05-07 12:11 40.10514 -3.54712 8736 ft 260 kts 47°
2026-05-07 12:11 40.11767 -3.53028 8517 ft 262 kts 47°
2026-05-07 12:12 40.13036 -3.51324 8286 ft 261 kts 47°
2026-05-07 12:12 40.14307 -3.49615 8046 ft 259 kts 47°
2026-05-07 12:12 40.15543 -3.47953 7824 ft 256 kts 47°
2026-05-07 12:12 40.16778 -3.46292 7606 ft 253 kts 47°
2026-05-07 12:13 40.18033 -3.44721 7398 ft 251 kts 43°
2026-05-07 12:13 40.19334 -3.43202 7180 ft 250 kts 43°
2026-05-07 12:13 40.20635 -3.41690 6961 ft 250 kts 43°
2026-05-07 12:13 40.22051 -3.40399 6762 ft 251 kts 31°
2026-05-07 12:14 40.23462 -3.39399 6583 ft 253 kts 30°
2026-05-07 12:14 40.25028 -3.38376 6341 ft 252 kts 19°
2026-05-07 12:14 40.26736 -3.38085 6156 ft 243 kts
2026-05-07 12:14 40.28394 -3.38001 5928 ft 237 kts
2026-05-07 12:15 40.30032 -3.37873 5700 ft 231 kts
2026-05-07 12:15 40.31578 -3.38066 5467 ft 218 kts 334°
2026-05-07 12:15 40.32834 -3.39046 5373 ft 214 kts 324°
2026-05-07 12:15 40.34016 -3.40118 5168 ft 214 kts 322°
2026-05-07 12:16 40.35186 -3.41273 4971 ft 213 kts 321°
2026-05-07 12:16 40.36349 -3.42448 4654 ft 211 kts 321°
2026-05-07 12:16 40.37497 -3.43616 4346 ft 204 kts 321°
2026-05-07 12:16 40.38576 -3.44713 4084 ft 188 kts 322°
2026-05-07 12:17 40.39561 -3.45707 3842 ft 171 kts 322°
2026-05-07 12:17 40.40451 -3.46614 3645 ft 158 kts 321°
2026-05-07 12:17 40.41328 -3.47502 3456 ft 163 kts 322°
2026-05-07 12:17 40.42218 -3.48402 3223 ft 158 kts 322°
2026-05-07 12:18 40.43053 -3.49252 3003 ft 148 kts 322°
2026-05-07 12:18 40.43867 -3.50080 2781 ft 149 kts 322°
2026-05-07 12:18 40.44699 -3.50924 2604 ft 152 kts 323°
2026-05-07 12:18 40.45544 -3.51751 2411 ft 152 kts 324°
2026-05-07 12:19 40.46372 -3.52610 2221 ft 153 kts 321°
2026-05-07 12:19 40.47214 -3.53479 2051 ft 153 kts 323°
2026-05-07 12:19 40.48045 -3.54312 1988 ft 143 kts 322°
2026-05-07 12:19 40.48753 -3.55034 1988 ft 110 kts 322°
2026-05-07 12:20 40.49142 -3.55439 1987 ft 44 kts 315°
2026-05-07 12:20 40.49250 -3.55716 1986 ft 26 kts 292°
2026-05-07 12:20 40.49298 -3.55939 1985 ft 26 kts 272°
2026-05-07 12:20 40.49263 -3.56140 1988 ft 21 kts 209°
2026-05-07 12:21 40.49118 -3.56144 1987 ft 21 kts 179°
2026-05-07 12:21 40.48973 -3.56142 1988 ft 21 kts 179°
2026-05-07 12:21 40.48825 -3.56144 1985 ft 21 kts 182°
2026-05-07 12:21 40.48767 -3.56292 1988 ft 21 kts 273°
2026-05-07 12:22 40.48768 -3.56486 1988 ft 21 kts 269°
2026-05-07 12:22 40.48767 -3.56678 1988 ft 21 kts 270°
2026-05-07 12:22 40.48766 -3.56871 1989 ft 21 kts 269°
2026-05-07 12:22 40.48769 -3.57065 1988 ft 21 kts 284°
2026-05-07 12:23 40.48896 -3.57123 1986 ft 21 kts
2026-05-07 12:23 40.49040 -3.57100 1988 ft 21 kts 41°
2026-05-07 12:23 40.49025 -3.57013 1989 ft 9 kts 146°
2026-05-07 12:23 40.48993 -3.56942 1989 ft 10 kts 98°
2026-05-07 12:24 40.48993 -3.56880 1985 ft 0 kts 88°